Simultaneous Nadir Overpasses (SNOs) Predictions

Prediction of SNOs between AQUA and METOP-B Satellite Orbit:

Table of predicted SNOs for the next 14.0 days since TLE Epoch: 11/24/2018
Index Date (AQUA) Time (AQUA) Lat,Lon (AQUA) SZA (AQUA ) Date (METOP-B) Time (METOP-B) Lat,Lon (METOP-B) SZA (METOP-B ) Distance(km) Time Diff (sec)
1 11/26/2018 18:11:28 73.84, -98.69 94.80 11/26/2018 18:10:15 73.82, -98.77 94.78 3.57 73
2 11/26/2018 19:00:56 -73.94, 68.73 85.10 11/26/2018 19:00:54 -73.94, 68.85 85.10 3.63 2
3 11/26/2018 19:50:24 74.00,-123.75 94.97 11/26/2018 19:51:33 74.00,-123.67 94.97 2.45 69
4 11/29/2018 13:45:43 73.88, -32.33 95.34 11/29/2018 13:44:38 73.88, -32.22 95.34 3.45 65
5 11/29/2018 14:35:10 -73.93, 135.20 84.61 11/29/2018 14:35:19 -73.91, 135.17 84.63 2.40 9
6 11/29/2018 15:24:42 74.19, -57.75 95.67 11/29/2018 15:25:53 74.21, -56.75 95.67 30.49 71
7 12/02/2018 09:19:58 73.87, 34.12 95.77 12/02/2018 09:19:03 73.89, 34.20 95.80 3.21 55
8 12/02/2018 10:09:25 -73.92,-158.34 84.18 12/02/2018 10:09:44 -73.92,-158.40 84.18 1.65 19
9 12/02/2018 10:59:05 74.59, 7.72 96.53 12/02/2018 11:00:11 74.56, 10.57 96.46 84.25 66
10 12/05/2018 04:54:13 73.87, 100.57 96.16 12/05/2018 04:53:29 73.85, 100.50 96.15 3.29 44
11 12/05/2018 05:43:40 -73.92, -91.90 83.79 12/05/2018 05:44:09 -73.93, -91.97 83.78 2.24 29
12 12/08/2018 00:28:27 73.88, 167.00 96.50 12/08/2018 00:27:52 73.90, 167.04 96.53 2.93 35
13 12/08/2018 01:17:54 -73.93, -25.48 83.44 12/08/2018 01:18:33 -73.94, -25.55 83.44 2.30 39




NCC Satellite Simultaneous Nadir Overpasses (SNOs) Prediction Service
